Regional Weather Roundup
Issued by NWS

Home | Current Version | Previous Version | Graphics & Text | Print | Product List | Glossary On
Versions: 1 2 3 4 5 6 7 8 9 10 11 12 13 14 15 16 17 18 19 20 21 22 23 24 25 26 27 28 29 30 31 32 33 34 35 36 37 38 39 40 41 42 43 44 45 46 47 48 49 50
000
ASUS43 KLOT 252000
RWRIL

ILLINOIS REGIONAL WEATHER ROUNDUP
NATIONAL WEATHER SERVICE CHICAGO/ROMEOVILLE IL
200 PM CST SUN JAN 25 2015

NOTE: "FAIR" INDICATES FEW OR NO CLOUDS BELOW 12,000 FEET WITH NO
SIGNIFICANT WEATHER AND/OR OBSTRUCTIONS TO VISIBILITY.

* THESE STATIONS ARE NOT UNDER NWS QUALITY CONTROL. THEY ALSO MAY NOT
  REPORT WEATHER SUCH AS PRECIPITATION OR FOG.

ILZ001-002-007-009-015-016-024-252100-
NORTHWEST ILLINOIS

CITY           SKY/WX    TMP DP  RH WIND       PRES   REMARKS
MOLINE         CLOUDY    30  24  78 NE14G23   29.84R WCI  19
STERLING*      CLOUDY    30  19  64 NE15G23   29.84R WCI  19
$$

ILZ003-004-008-010-011-017-018-252100-
NORTH CENTRAL ILLINOIS

CITY           SKY/WX    TMP DP  RH WIND       PRES   REMARKS
ROCKFORD       CLOUDY    28  16  60 NE22      29.89R WCI  14
$$

ILZ005-006-012>014-019>023-252100-
NORTHEAST ILLINOIS

CITY           SKY/WX    TMP DP  RH WIND       PRES   REMARKS
CHICAGO-OHARE  LGT SNOW  28  23  81 NE20G29   29.83R WCI  15
CHICAGO-MIDWAY LGT SNOW  31  27  85 NE21G29   29.81R FOG     WCI  18
AURORA         LGT SNOW  29  22  75 NE23G32   29.81R WCI  15
WAUKEGAN       CLOUDY    26  17  68 NE17G29   29.87R WCI  13
DUPAGE AIRPORT LGT SNOW  28  22  78 NE23G30   29.81R WCI  14
WHEELING       LGT SNOW  27  22  81 NE16G25   29.87R WCI  15
NORTHERLY ISL    N/A     29  27  92 NE20        N/A  WCI  16
$$

LMZ740>746-252100-
SOUTHERN LAKE MICHIGAN

STATION/POSITION SKY/WX   TEMP    WIND        PRES    VSBY  WAVE
                          AIR SEA DIR/SP/G                  HT/PER
                          (F)     (DEG/KT/KT) (MB)    (MI)  (FT/S)
WAUKEGAN HARBOR            27      40/ 28/ 34   N/A
HARRISON CRIB              28      30/ 25/ 28   N/A
BURNHAM HARBOR             29      30/ 14/ 23   N/A
CALUMET HARBOR             29      30/ 18/ 25   N/A
MICHIGAN CITY              28      20/ 22/ 23   N/A
$$

ILZ025>027-034>036-040-047-049-050-058-095>099-252100-
WEST-CENTRAL ILLINOIS

CITY           SKY/WX    TMP DP  RH WIND       PRES   REMARKS
QUINCY         LGT SNOW  34  32  92 N20G31    29.73R FOG     WCI  23
$$

ILZ028>032-037-038-041>044-048-051>054-059>061-252100-
CENTRAL ILLINOIS

CITY           SKY/WX    TMP DP  RH WIND       PRES   REMARKS
DECATUR        CLOUDY    36  34  92 N20       29.63R FOG     WCI  25
PEORIA         LGT SNOW  35  31  85 N16G23    29.73R FOG     WCI  25
SPRINGFIELD    CLOUDY    37  33  85 N18       29.67R WCI  27
TAYLORVILLE    NOT AVBL
$$

ILZ033-039-045-046-055>057-062-063-252100-
EAST-CENTRAL ILLINOIS

CITY           SKY/WX    TMP DP  RH WIND       PRES   REMARKS
CHAMPAIGN      CLOUDY    36  34  92 NE18      29.63R FOG     WCI  26
MATTOON        CLOUDY    39  38  96 NE7       29.59R FOG     WCI  34
$$

ILZ079-100>102-252100-
SOUTHWEST ILLINOIS

CITY           SKY/WX    TMP DP  RH WIND       PRES   REMARKS
BELLEVILLE     LGT RAIN  46  46 100 NW8       29.58R
CAHOKIA*       CLOUDY    46  43  89 W15G22    29.59R FOG
$$

ILZ064>066-069>071-074>076-080>082-084>086-088>090-092>094-252100-
SOUTH-CENTRAL ILLINOIS

CITY           SKY/WX    TMP DP  RH WIND       PRES   REMARKS
CARBONDALE     LGT RAIN  44  42  93 W8        29.57S FOG
MARION         RAIN      43  41  93 SW12      29.57F
MT. VERNON     CLOUDY    43  39  87 CALM      29.57S
$$

ILZ067-068-072-073-078-083-087-091-252100-
SOUTHEAST ILLINOIS

CITY           SKY/WX    TMP DP  RH WIND       PRES   REMARKS
LAWRENCEVILLE  CLOUDY    41  40  96 SE3       29.60S FOG
$$

ABBREVIATIONS USED IN REMARKS
   TC - TEMPERATURE IN CELSIUS
  WCI - WIND CHILL INDEX
   HX - HEAT INDEX
  VSB - VISIBILITY
$$




USA.gov is the U.S. government's official web portal to all federal, state and local government web resources and services.